Millville, NJ

7:32 PM EST on February 26, 2017 (GMT -0500)
Millville Municipal

Weather History for KMIV - July, 2013

Change the Weather History Date:

Wednesday, July 3, 2013

  Actual Average Record
Temperature  
Mean Temperature 78 °F -  
Max Temperature 86 °F 84 °F 102 °F (1966)
Min Temperature 71 °F 65 °F 46 °F (2001)
Cooling Degree Days 12    
Growing Degree Days 28 (Base 50)    
Moisture  
Dew Point 73 °F    
Average Humidity 83    
Maximum Humidity 94    
Minimum Humidity 67    
Precipitation  
Precipitation 0.01 in - - ()
Sea Level Pressure  
Sea Level Pressure 30.23 in    
Wind  
Wind Speed 2 mph (South)    
Max Wind Speed 10 mph    
Max Gust Speed 22 mph    
Visibility 8 miles    
Events Rain    
Averages and records for this station are not official NWS values.
T = Trace of Precipitation, MM = Missing Value Source: NWS Daily Summary

Daily Weather History Graph

Daily Weather History Graph

Search for Another Location

Airport or City:

Trip Planner

Search our weather history database for the weather conditions in past years. The results will help you decide how hot, cold, wet, or windy it might be!

Date:

Astronomy

Jul. 03, 2013 Rise Set
Actual Time 5:38 AM EDT 8:30 PM EDT
Civil Twilight 5:06 AM EDT 9:02 PM EDT
Nautical Twilight 4:25 AM EDT 9:43 PM EDT
Astronomical Twilight 3:39 AM EDT 10:29 PM EDT
Moon 2:14 AM EDT (7/3) 4:39 PM EDT (7/3)
Length of Visible Light 15h 56m
Length of Day
14h 52m
Waning Crescent, 18% of the Moon is Illuminated
Jul 3
Waning Crescent
Jul 8
New
Jul 15
First Quarter
Jul 22
Full
Jul 29
Last Quarter

Hourly Weather History & Observations

Time (EDT) Temp. Heat Index Dew Point Humidity Pressure Visibility Wind Dir Wind Speed Gust Speed Precip Events Conditions
12:54 AM 73.0 °F - 69.1 °F 87% 30.22 in 9.0 mi Calm Calm - N/A   Clear
1:54 AM 72.0 °F - 70.0 °F 93% 30.22 in 9.0 mi Calm Calm - N/A   Clear
2:54 AM 72.0 °F - 70.0 °F 93% 30.21 in 10.0 mi Calm Calm - N/A   Clear
3:54 AM 73.0 °F - 70.0 °F 90% 30.20 in 9.0 mi Calm Calm - N/A   Scattered Clouds
4:54 AM 72.0 °F - 70.0 °F 93% 30.21 in 7.0 mi Calm Calm - 0.01 in   Clear
5:54 AM 72.0 °F - 70.0 °F 93% 30.23 in 6.0 mi Calm Calm - N/A   Clear
6:04 AM 71.6 °F - 69.8 °F 94% 30.24 in 6.0 mi Calm Calm - N/A   Scattered Clouds
6:14 AM 73.4 °F - 71.6 °F 94% 30.24 in 6.0 mi Calm Calm - N/A   Mostly Cloudy
6:54 AM 73.9 °F - 72.0 °F 93% 30.23 in 5.0 mi Calm Calm - N/A   Overcast
7:54 AM 75.9 °F - 73.0 °F 91% 30.25 in 6.0 mi Variable 3.5 mph - 0.00 in   Overcast
8:03 AM 75.2 °F - 73.4 °F 94% 30.25 in 5.0 mi Calm Calm - N/A   Overcast
8:54 AM 78.1 °F - 73.0 °F 84% 30.26 in 6.0 mi SSW 4.6 mph - N/A   Haze
9:54 AM 79.0 °F - 73.0 °F 82% 30.26 in 7.0 mi Variable 5.8 mph - N/A   Overcast
10:19 AM 80.6 °F 85.4 °F 73.4 °F 79% 30.26 in 7.0 mi South 8.1 mph - N/A   Overcast
10:29 AM 80.6 °F 85.4 °F 73.4 °F 79% 30.26 in 7.0 mi Variable 6.9 mph - N/A   Overcast
10:54 AM 79.0 °F - 73.9 °F 84% 30.26 in 7.0 mi Variable 4.6 mph - N/A   Overcast
11:07 AM 78.8 °F - 73.4 °F 83% 30.26 in 6.0 mi Variable 6.9 mph - 0.00 in Rain Light Rain
11:14 AM 78.8 °F - 73.4 °F 83% 30.26 in 7.0 mi Variable 3.5 mph - 0.00 in Rain Light Rain
11:34 AM 80.6 °F 85.4 °F 73.4 °F 79% 30.26 in 8.0 mi South 4.6 mph - 0.00 in   Mostly Cloudy
11:46 AM 80.6 °F 85.4 °F 73.4 °F 79% 30.26 in 8.0 mi Variable 3.5 mph - 0.00 in   Mostly Cloudy
11:54 AM 82.0 °F 87.9 °F 73.9 °F 76% 30.25 in 8.0 mi South 6.9 mph - 0.00 in   Mostly Cloudy
12:02 PM 82.4 °F 88.2 °F 73.4 °F 74% 30.26 in 9.0 mi Variable 4.6 mph - N/A   Mostly Cloudy
12:54 PM 84.0 °F 90.2 °F 73.0 °F 69% 30.25 in 10.0 mi Variable 5.8 mph - N/A   Scattered Clouds
1:54 PM 84.0 °F 89.6 °F 72.0 °F 67% 30.22 in 10.0 mi Variable 4.6 mph - N/A   Clear
2:54 PM 84.9 °F 91.4 °F 73.0 °F 67% 30.21 in 10.0 mi SSE 10.4 mph 21.9 mph N/A   Partly Cloudy
3:54 PM 84.9 °F 92.1 °F 73.9 °F 69% 30.20 in 10.0 mi Variable 5.8 mph - N/A   Clear
4:54 PM 84.0 °F 91.2 °F 73.9 °F 72% 30.20 in 10.0 mi South 6.9 mph - N/A   Clear
5:54 PM 82.9 °F 89.4 °F 73.9 °F 74% 30.19 in 9.0 mi Variable 6.9 mph - N/A   Clear
6:54 PM 82.0 °F 87.9 °F 73.9 °F 76% 30.21 in 9.0 mi Variable 6.9 mph - N/A   Clear
7:54 PM 80.1 °F 84.2 °F 73.0 °F 79% 30.21 in 8.0 mi Variable 4.6 mph - N/A   Clear
8:54 PM 79.0 °F - 73.0 °F 82% 30.21 in 9.0 mi South 4.6 mph - N/A   Partly Cloudy
9:54 PM 79.0 °F - 73.0 °F 82% 30.24 in 10.0 mi Calm Calm - N/A   Clear
10:54 PM 77.0 °F - 73.0 °F 88% 30.25 in 9.0 mi Calm Calm - N/A   Clear
11:54 PM 75.9 °F - 73.0 °F 91% 30.25 in 8.0 mi Calm Calm - N/A   Clear